Location: Gleizolles
(44.4833°N, 6.7667°E)
Time: 03:52:58
(UTC+00:00)

N. Korean satellite - Pass Details

Date: 09 December 2021
Orbit: 447 x 491 km, 97.3° (Epoch: 23 January)

Event Time Altitude Azimuth Distance (km) Brightness Sun altitude
Rises 05:33:55 0° 360° (N) 2,461 10.0 -14.3°
Reaches altitude 10° 05:36:11 10° 347° (NNW) 1,583 8.9 -13.9°
Maximum altitude 05:38:59 25° 290° (WNW) 951 7.4 -13.5°
Drops below altitude 10° 05:41:48 10° 234° (SW) 1,575 8.8 -13.0°
Sets 05:44:03 0° 220° (SW) 2,446 9.9 -12.6°
